Location: Ergnies
(50.0854°N, 2.0375°E)
Time: 19:56:43
(UTC+00:00)

Meteor 2-13 Rocket - Pass Details

Date: 14 January 2026
Orbit: 935 x 958 km, 82.5° (Epoch: 13 February)

Event Time Altitude Azimuth Distance (km) Brightness Sun altitude
Rises 05:24:40 0° 348° (NNW) 3,642 7.3 -21.9°
Reaches altitude 10° 05:27:11 10° 347° (NNW) 2,689 6.6 -21.5°
Maximum altitude 05:33:19 75° 263° (W) 983 4.3 -20.5°
Drops below altitude 10° 05:39:22 10° 180° (S) 2,654 6.9 -19.5°
Sets 05:41:50 0° 178° (S) 3,592 7.6 -19.2°
